Back to catalog

GEESAT 6-05

AliveCommunicationsLEO
NORAD 65717·PAYLOAD·🇨🇳 China

Launched Sep 24, 2025 from Yellow Sea Launch Area

Loading…

Next Passes (next 24 hours)

TLE

FreshSource: Space-Track

Epoch: Sep 14, 2026, 08:48 UTC

1 65717U 25214F   26257.36705521  .00001048  00000-0  15303-3 0  9999
2 65717  49.9789 254.9933 0012546 196.9412 163.1109 14.83605453 52747

Track GEESAT 6-05 in real time with AllMySat

Download on the App Store